• In Czech Republic
  • List of Countries
  • For 7 days
  • Water Temperature
  • Satellite Maps
  • Weather Map
  • Weather Widgets
  • user-avatar
    Login

    Hourly Weather Radonowki

    Today, 22 September, Saturday

    Time Temperature Precipitation Wind Pressure Humidity
    00:00 +19°C° 0 mm 4 mps 735 mmHg 61%
    01:00 +18°C° 0 mm 3 mps 735 mmHg 61%
    02:00 +18°C° 0 mm 4 mps 735 mmHg 58%
    03:00 +18°C° 0 mm 4 mps 735 mmHg 56%
    04:00 +19°C° 0 mm 4 mps 735 mmHg 54%
    05:00 +18°C° 0.2 mm 4 mps 736 mmHg 64%
    06:00 +15°C° 0.2 mm 5 mps 737 mmHg 74%
    07:00 +14°C° 0 mm 6 mps 738 mmHg 82%
    08:00 +13°C° 0.7 mm 5 mps 738 mmHg 84%
    09:00 +12°C° 0.7 mm 4 mps 739 mmHg 85%
    10:00 +11°C° 0.7 mm 3 mps 739 mmHg 87%
    11:00 +11°C° 1.2 mm 3 mps 740 mmHg 88%
    12:00 +12°C° 1.2 mm 2 mps 740 mmHg 89%
    13:00 +12°C° 1.2 mm 2 mps 740 mmHg 89%
    14:00 +12°C° 0.4 mm 2 mps 740 mmHg 85%
    15:00 +13°C° 0.4 mm 2 mps 740 mmHg 81%
    16:00 +13°C° 0.4 mm 2 mps 739 mmHg 77%
    17:00 +12°C° 0 mm 2 mps 739 mmHg 80%
    18:00 +10°C° 0 mm 2 mps 739 mmHg 82%
    19:00 +9°C° 0 mm 2 mps 739 mmHg 85%
    20:00 +9°C° 0 mm 2 mps 740 mmHg 83%
    21:00 +9°C° 0 mm 2 mps 740 mmHg 82%
    22:00 +9°C° 0 mm 2 mps 740 mmHg 80%
    23:00 +10°C° 0 mm 2 mps 740 mmHg 79%

    Tomorrow, 23 September, Sunday

    Time Temperature Precipitation Wind Pressure Humidity
    00:00 +10°C° 0 mm 2 mps 740 mmHg 79%
    01:00 +10°C° 0 mm 2 mps 740 mmHg 78%
    02:00 +10°C° 0 mm 2 mps 739 mmHg 79%
    03:00 +9°C° 0 mm 3 mps 739 mmHg 81%
    04:00 +9°C° 0 mm 3 mps 739 mmHg 82%
    05:00 +9°C° 0 mm 3 mps 739 mmHg 81%
    06:00 +10°C° 0 mm 3 mps 739 mmHg 79%
    07:00 +11°C° 0 mm 3 mps 739 mmHg 77%
    08:00 +13°C° 0 mm 4 mps 739 mmHg 70%
    09:00 +14°C° 0 mm 4 mps 739 mmHg 62%
    10:00 +16°C° 0 mm 5 mps 739 mmHg 55%
    11:00 +16°C° 0 mm 5 mps 738 mmHg 54%
    12:00 +18°C° 0 mm 4 mps 738 mmHg 52%
    13:00 +18°C° 0 mm 4 mps 738 mmHg 51%
    14:00 +18°C° 0 mm 4 mps 737 mmHg 55%
    15:00 +17°C° 0 mm 3 mps 737 mmHg 59%
    16:00 +17°C° 0 mm 3 mps 736 mmHg 63%
    17:00 +16°C° 0.1 mm 3 mps 735 mmHg 65%
    18:00 +14°C° 0.1 mm 4 mps 735 mmHg 67%
    19:00 +14°C° 0.1 mm 4 mps 734 mmHg 69%
    20:00 +14°C° 0 mm 5 mps 733 mmHg 65%
    21:00 +15°C° 0 mm 7 mps 732 mmHg 61%
    22:00 +16°C° 0 mm 9 mps 731 mmHg 57%
    23:00 +16°C° 0.4 mm 9 mps 730 mmHg 63%

    Day after tomorrow, 24 September, Monday

    Time Temperature Precipitation Wind Pressure Humidity
    00:00 +16°C° 0.4 mm 9 mps 729 mmHg 69%
    01:00 +14°C° 0.4 mm 10 mps 728 mmHg 75%
    02:00 +15°C° 1.7 mm 9 mps 728 mmHg 80%
    03:00 +15°C° 1.7 mm 9 mps 727 mmHg 84%
    04:00 +15°C° 1.7 mm 8 mps 727 mmHg 89%
    05:00 +12°C° 1.1 mm 8 mps 728 mmHg 88%
    06:00 +11°C° 1.1 mm 9 mps 729 mmHg 87%
    07:00 +8°C° 1.1 mm 9 mps 731 mmHg 87%
    08:00 +9°C° 0.2 mm 8 mps 732 mmHg 85%
    09:00 +9°C° 0.2 mm 8 mps 734 mmHg 83%
    10:00 +9°C° 0.2 mm 7 mps 735 mmHg 81%
    11:00 +9°C° 0.2 mm 8 mps 736 mmHg 77%
    12:00 +10°C° 0.2 mm 8 mps 736 mmHg 73%
    13:00 +10°C° 0.2 mm 8 mps 737 mmHg 69%
    14:00 +10°C° 0.1 mm 8 mps 737 mmHg 65%
    15:00 +10°C° 0.1 mm 7 mps 738 mmHg 62%
    16:00 +10°C° 0.1 mm 7 mps 738 mmHg 59%
    17:00 +9°C° 0 mm 7 mps 739 mmHg 60%
    18:00 +8°C° 0 mm 6 mps 739 mmHg 61%
    19:00 +7°C° 0 mm 6 mps 740 mmHg 62%
    20:00 +7°C° 0.1 mm 6 mps 740 mmHg 65%
    21:00 +5°C° 0.1 mm 6 mps 741 mmHg 68%
    22:00 +5°C° 0.1 mm 6 mps 741 mmHg 70%
    23:00 +5°C° 0.2 mm 6 mps 741 mmHg 73%

    25 September, Tuesday

    Time Temperature Precipitation Wind Pressure Humidity
    00:00 +5°C° 0.2 mm 6 mps 742 mmHg 77%
    01:00 +4°C° 0.2 mm 6 mps 742 mmHg 80%
    02:00 +5°C° 0.1 mm 5 mps 743 mmHg 81%
    03:00 +5°C° 0.1 mm 5 mps 743 mmHg 83%
    04:00 +3°C° 0.1 mm 5 mps 744 mmHg 84%
    05:00 +5°C° 0 mm 5 mps 744 mmHg 83%
    06:00 +5°C° 0 mm 5 mps 745 mmHg 81%
    07:00 +5°C° 0 mm 5 mps 746 mmHg 80%
    08:00 +5°C° 0.1 mm 6 mps 746 mmHg 72%
    09:00 +7°C° 0.1 mm 6 mps 747 mmHg 64%
    10:00 +9°C° 0.1 mm 7 mps 747 mmHg 56%
    11:00 +9°C° 0.1 mm 7 mps 747 mmHg 54%
    12:00 +9°C° 0.1 mm 7 mps 747 mmHg 52%
    13:00 +10°C° 0.1 mm 7 mps 747 mmHg 51%
    14:00 +9°C° 0.1 mm 6 mps 748 mmHg 55%
    15:00 +9°C° 0.1 mm 6 mps 748 mmHg 59%
    16:00 +8°C° 0.1 mm 5 mps 748 mmHg 63%
    17:00 +7°C° 0 mm 5 mps 749 mmHg 68%
    18:00 +6°C° 0 mm 4 mps 749 mmHg 72%
    19:00 +5°C° 0 mm 3 mps 750 mmHg 77%
    20:00 +5°C° 0 mm 3 mps 750 mmHg 78%
    21:00 +4°C° 0 mm 3 mps 751 mmHg 79%
    22:00 +5°C° 0 mm 2 mps 751 mmHg 81%
    23:00 +4°C° 0 mm 2 mps 752 mmHg 82%

    26 September, Wednesday

    Time Temperature Precipitation Wind Pressure Humidity
    00:00 +4°C° 0 mm 2 mps 752 mmHg 83%
    01:00 +3°C° 0 mm 2 mps 752 mmHg 84%
    02:00 +3°C° 0 mm 2 mps 752 mmHg 84%
    03:00 +3°C° 0 mm 2 mps 752 mmHg 84%
    04:00 +2°C° 0 mm 2 mps 752 mmHg 84%
    05:00 +3°C° 0 mm 2 mps 752 mmHg 81%
    06:00 +4°C° 0 mm 2 mps 752 mmHg 77%
    07:00 +5°C° 0 mm 2 mps 753 mmHg 73%
    08:00 +7°C° 0 mm 2 mps 752 mmHg 65%
    09:00 +9°C° 0 mm 2 mps 752 mmHg 57%
    10:00 +11°C° 0 mm 3 mps 752 mmHg 49%
    11:00 +12°C° 0 mm 3 mps 752 mmHg 46%
    12:00 +13°C° 0 mm 3 mps 751 mmHg 43%
    13:00 +14°C° 0 mm 4 mps 750 mmHg 40%
    14:00 +13°C° 0 mm 3 mps 750 mmHg 44%
    15:00 +13°C° 0 mm 3 mps 749 mmHg 47%
    16:00 +13°C° 0 mm 3 mps 749 mmHg 51%
    17:00 +12°C° 0 mm 3 mps 749 mmHg 50%
    18:00 +11°C° 0 mm 3 mps 748 mmHg 50%
    19:00 +10°C° 0 mm 4 mps 748 mmHg 49%
    20:00 +10°C° 0 mm 4 mps 748 mmHg 49%
    21:00 +10°C° 0 mm 4 mps 748 mmHg 50%
    22:00 +8°C° 0 mm 4 mps 748 mmHg 50%
    23:00 +8°C° 0 mm 4 mps 748 mmHg 51%

    27 September, Thursday

    Time Temperature Precipitation Wind Pressure Humidity
    00:00 +8°C° 0 mm 4 mps 747 mmHg 52%
    01:00 +7°C° 0 mm 4 mps 747 mmHg 54%
    02:00 +7°C° 0 mm 4 mps 747 mmHg 54%
    03:00 +6°C° 0 mm 4 mps 746 mmHg 55%
    04:00 +6°C° 0 mm 4 mps 746 mmHg 56%
    05:00 +6°C° 0 mm 5 mps 745 mmHg 55%
    06:00 +7°C° 0 mm 5 mps 745 mmHg 55%
    07:00 +7°C° 0 mm 5 mps 745 mmHg 54%
    08:00 +9°C° 0 mm 5 mps 745 mmHg 51%
    09:00 +11°C° 0 mm 6 mps 744 mmHg 48%
    10:00 +14°C° 0 mm 6 mps 744 mmHg 45%
    11:00 +15°C° 0 mm 6 mps 744 mmHg 43%
    12:00 +16°C° 0 mm 6 mps 743 mmHg 42%
    13:00 +17°C° 0 mm 6 mps 743 mmHg 41%
    14:00 +16°C° 0 mm 6 mps 742 mmHg 43%
    15:00 +16°C° 0 mm 5 mps 742 mmHg 46%
    16:00 +15°C° 0 mm 5 mps 741 mmHg 49%
    17:00 +14°C° 0 mm 4 mps 741 mmHg 48%
    18:00 +14°C° 0 mm 4 mps 741 mmHg 48%
    19:00 +13°C° 0 mm 4 mps 741 mmHg 47%
    20:00 +12°C° 0 mm 4 mps 741 mmHg 48%
    21:00 +12°C° 0 mm 4 mps 741 mmHg 49%
    22:00 +12°C° 0 mm 4 mps 741 mmHg 50%
    23:00 +12°C° 0 mm 4 mps 741 mmHg 50%
    Show more